Regional Weather Roundup
Issued by NWS Burlington, VT

Current Version | Previous Version | Text Only | Print | Product List | Glossary Off
Versions: 1 2 3 4 5 6 7 8 9 10 11 12 13 14 15 16 17 18 19 20 21 22 23 24 25 26 27 28 29 30 31 32 33 34 35 36 37 38 39 40 41 42 43 44 45 46 47 48 49 50

000
ASUS41 KBTV 251330
RWRBTV
VERMONT REGIONAL WEATHER ROUNDUP
NATIONAL WEATHER SERVICE BURLINGTON VT
900 AM EDT FRI JUL 25 2014

NOTE: "FAIR" INDICATES FEW OR NO CLOUDS BELOW 12,000 FEET WITH NO
SIGNIFICANT WEATHER AND/OR OBSTRUCTIONS TO VISIBILITY.

* THESE REPORTS ARE NOT UNDER NWS QUALITY CONTROL AND/OR DO NOT
  REPORT WEATHER SUCH AS PRECIPITATION AND FOG.

VTZ001>019-251400-
_____VERMONT_____


CITY           SKY/WX    TMP DP  RH WIND       PRES   REMARKS
BURLINGTON     SUNNY     66  54  65 SW8       29.99R
MONTPELIER     SUNNY     57  56  96 CALM      30.04R
MORRISVILLE    SUNNY    N/A N/A N/A CALM      30.01S
ST. JOHNSBURY*   N/A     53  51  93 MISG      29.99R
LYNDONVILLE*   FAIR      55  52  92 CALM      30.01S
MIDDLEBURY*    FAIR      66  55  68 S8        30.02R
RUTLAND*       SUNNY     61  54  77 S3        30.04R
SPRINGFIELD    SUNNY     59  52  77 CALM      30.02S
HIGHGATE*      FAIR      66  57  71 S6        29.97S
NEWPORT*       FAIR     N/A N/A N/A S6        29.98S
BENNINGTON     SUNNY     62  55  77 CALM      30.05R
SUTTON*          N/A     59 N/A N/A MISG        N/A
GALLUP MILLS*    N/A     46 N/A N/A MISG        N/A
UNION VILLAGE*   N/A     57 N/A N/A MISG        N/A
MT. MANSFIELD*   N/A     52 N/A N/A NW16        N/A

_____LAKE CHAMPLAIN_____


CITY           SKY/WX    TMP DP  RH WIND       PRES   REMARKS
COLCHESTER RF*   N/A     64  59  82 S20         N/A
DIAMOND ISL*     N/A     61  55  82 SW8         N/A

$$

NYZ007-026>031-035-052-083-251400-
_____NORTHERN NEW YORK_____


CITY           SKY/WX    TMP DP  RH WIND       PRES   REMARKS
PLATTSBURGH    MOSUNNY   68  57  68 S5        29.98R
SARANAC LAKE   SUNNY     60  54  80 SW7       30.02R
MASSENA        SUNNY     64  57  78 SW10      29.99S
OGDENSBURG*    SUNNY     66  57  72 SW8       29.99F
POTSDAM*       SUNNY     66  61  82 W8        30.00F
PARISHVILLE*     N/A     63 N/A N/A SW6         N/A
WATERTOWN      SUNNY     67  57  70 SW8       30.04R
FT DRUM        SUNNY     65  57  75 W8        30.03S
ALBANY         SUNNY     66  56  70 W5        30.05R
GLENS FALLS    SUNNY     62  54  74 S5        30.03R

$$
NHZ002-005-011-251400-
_____NEW HAMPSHIRE_____


CITY           SKY/WX    TMP DP  RH WIND       PRES   REMARKS
LEBANON        MOSUNNY   58  52  80 CALM      30.01R
KEENE          SUNNY     59  48  67 SW3       30.03R
MT WASHINGTON  FOG       43  43 100 NW33        N/A  VSB 1/16
PLYMOUTH       FAIR      64  55  73 NW5       29.99S
WHITEFIELD     SUNNY     61  54  77 CALM      30.00R

$$

_____REGIONAL QUEBEC LOCATIONS_____


CITY           SKY/WX    TMP DP  RH WIND       PRES   REMARKS
MONTREAL       PTSUNNY   68  57  68 SW13      29.95S
QUEBEC CITY    MOSUNNY   64  57  77 SW9       29.89S
SHERBROOKE     SUNNY     64  55  72 SW3       29.95S

_____REGIONAL ONTARIO LOCATIONS_____


CITY           SKY/WX    TMP DP  RH WIND       PRES   REMARKS
OTTAWA         PTSUNNY   64  55  72 W8        29.97S

______KEY______
VSB  - VISIBILITY IN MILES
WCI  - WIND CHILL INDEX
HX   - HEAT INDEX
$$
NNNN



USA.gov is the U.S. government's official web portal to all federal, state and local government web resources and services.